Find Starlink 30885

NORAD ID: 58361 Int'l Des: 2023-177 Owner: SPXS Country: US Constellation: starlink operational
LEOCIRCULAR

Current View

Loading 3D Globe...

About Starlink 30885

Starlink 30885 (NORAD 58361) is a starlink constellation satellite (v2 mini) launched Nov 18, 2023 by SPXS of US. It operates in LEO, CIRCULAR orbit with a mass of 730.00 kg.

About Starlink 30885

Description loading...

Upcoming Passes

Passes for default location (London). Set your location on the main map for personalized predictions.

Altitude History

Loading altitude history...

Two-Line Element Set

1 58361U 23177L 26165.69036318 -.00003854 00000-0 -13061-3 0 9995
2 58361 43.0048 162.6931 0001016 269.9681 90.1054 15.27581473143078
Epoch: Jun 14, 2026 • Age: 18 hours

Current Status

Altitude 483.0 km
Velocity 7.63 km/s
Sub-Earth Point -1.12°S, 83.42°W
Launch Date Nov 18, 2023
Age 2.5 years
Type internet

Technical Details

Classification Payload
Mass 730.00 kg
Dry Mass 700.00 kg
Total Mass 730.00 kg
Length 0.30 m
Diameter 4.10 m
Span 29.00 m
Shape Box + pan
Manufacturer SPXS
Bus Type Starlink V2M
Phase Status In Orbit
Owner/State SPXS/US

Most Searched